When you browse on this site, cookies collect data to enhance your experience and personalize the content and advertising you see.
Visit our Privacy Policy to learn more. By continuing to use the site, you agree to this use of cookies and data.
  • In Spain
  • List of Countries
  • For 7 days
  • Water Temperature
  • Weather Map
  • Weather Widgets
  • user-avatar
    Login

    Hourly Weather Zabid

    Today, 21 August, Wednesday

    Time Temperature Precipitation Wind Pressure Humidity
    00:00 +34°C° 0 mm 3 mps 747 mmHg 76%
    01:00 +33°C° 0 mm 3 mps 746 mmHg 79%
    02:00 +33°C° 0 mm 3 mps 746 mmHg 82%
    03:00 +31°C° 0 mm 3 mps 745 mmHg 87%
    04:00 +31°C° 0 mm 3 mps 746 mmHg 86%
    05:00 +31°C° 0 mm 3 mps 746 mmHg 85%
    06:00 +33°C° 0 mm 3 mps 747 mmHg 84%
    07:00 +32°C° 0 mm 2 mps 747 mmHg 82%
    08:00 +32°C° 0 mm 2 mps 747 mmHg 80%
    09:00 +34°C° 0 mm 2 mps 747 mmHg 78%
    10:00 +34°C° 0 mm 2 mps 747 mmHg 73%
    11:00 +35°C° 0 mm 3 mps 747 mmHg 68%
    12:00 +36°C° 0 mm 3 mps 747 mmHg 63%
    13:00 +36°C° 0 mm 3 mps 746 mmHg 61%
    14:00 +37°C° 0 mm 3 mps 746 mmHg 58%
    15:00 +37°C° 0 mm 3 mps 745 mmHg 56%
    16:00 +37°C° 0 mm 3 mps 745 mmHg 56%
    17:00 +37°C° 0 mm 3 mps 745 mmHg 56%
    18:00 +36°C° 0 mm 4 mps 745 mmHg 56%
    19:00 +36°C° 0 mm 4 mps 745 mmHg 59%
    20:00 +35°C° 0 mm 3 mps 745 mmHg 62%
    21:00 +34°C° 0 mm 3 mps 746 mmHg 65%
    22:00 +34°C° 0 mm 3 mps 746 mmHg 66%
    23:00 +34°C° 0 mm 3 mps 746 mmHg 67%

    Tomorrow, 22 August, Thursday

    Time Temperature Precipitation Wind Pressure Humidity
    00:00 +34°C° 0 mm 2 mps 746 mmHg 68%
    01:00 +32°C° 0 mm 2 mps 746 mmHg 71%
    02:00 +32°C° 0 mm 2 mps 745 mmHg 74%
    03:00 +31°C° 0 mm 2 mps 745 mmHg 77%
    04:00 +31°C° 0 mm 2 mps 745 mmHg 77%
    05:00 +31°C° 0 mm 1 mps 746 mmHg 77%
    06:00 +31°C° 0 mm 1 mps 746 mmHg 78%
    07:00 +32°C° 0 mm 2 mps 746 mmHg 74%
    08:00 +34°C° 0 mm 2 mps 746 mmHg 71%
    09:00 +34°C° 0 mm 3 mps 747 mmHg 68%
    10:00 +36°C° 0 mm 4 mps 747 mmHg 61%
    11:00 +37°C° 0 mm 4 mps 747 mmHg 54%
    12:00 +40°C° 0 mm 5 mps 746 mmHg 47%
    13:00 +40°C° 0.2 mm 5 mps 746 mmHg 46%
    14:00 +38°C° 0.2 mm 4 mps 745 mmHg 44%
    15:00 +38°C° 0.2 mm 4 mps 745 mmHg 42%
    16:00 +38°C° 0.2 mm 4 mps 745 mmHg 42%
    17:00 +38°C° 0.2 mm 4 mps 745 mmHg 41%
    18:00 +39°C° 0.2 mm 5 mps 745 mmHg 41%
    19:00 +37°C° 0 mm 4 mps 746 mmHg 40%
    20:00 +37°C° 0 mm 3 mps 746 mmHg 40%
    21:00 +37°C° 0 mm 2 mps 746 mmHg 39%
    22:00 +37°C° 0 mm 2 mps 746 mmHg 44%
    23:00 +36°C° 0 mm 2 mps 746 mmHg 48%

    Day after tomorrow, 23 August, Friday

    Time Temperature Precipitation Wind Pressure Humidity
    00:00 +36°C° 0 mm 2 mps 746 mmHg 52%
    01:00 +35°C° 0 mm 2 mps 745 mmHg 55%
    02:00 +34°C° 0 mm 1 mps 745 mmHg 58%
    03:00 +33°C° 0 mm 1 mps 744 mmHg 60%
    04:00 +33°C° 0 mm 1 mps 745 mmHg 63%
    05:00 +32°C° 0 mm 1 mps 745 mmHg 65%
    06:00 +32°C° 0 mm 2 mps 746 mmHg 68%
    07:00 +34°C° 0 mm 2 mps 746 mmHg 62%
    08:00 +35°C° 0 mm 2 mps 747 mmHg 56%
    09:00 +37°C° 0 mm 3 mps 747 mmHg 49%
    10:00 +38°C° 0 mm 3 mps 747 mmHg 43%
    11:00 +40°C° 0 mm 4 mps 747 mmHg 37%
    12:00 +41°C° 0 mm 4 mps 747 mmHg 31%
    13:00 +42°C° 0 mm 4 mps 746 mmHg 30%
    14:00 +42°C° 0 mm 4 mps 746 mmHg 29%
    15:00 +42°C° 0 mm 4 mps 745 mmHg 27%
    16:00 +40°C° 0 mm 3 mps 745 mmHg 28%
    17:00 +40°C° 0 mm 2 mps 746 mmHg 29%
    18:00 +39°C° 0 mm 1 mps 746 mmHg 29%
    19:00 +38°C° 0 mm 2 mps 746 mmHg 33%
    20:00 +38°C° 0 mm 2 mps 747 mmHg 36%
    21:00 +37°C° 0 mm 2 mps 747 mmHg 40%
    22:00 +37°C° 0 mm 2 mps 747 mmHg 43%
    23:00 +36°C° 0 mm 2 mps 747 mmHg 46%

    24 August, Saturday

    Time Temperature Precipitation Wind Pressure Humidity
    00:00 +36°C° 0 mm 2 mps 747 mmHg 49%
    01:00 +35°C° 0 mm 2 mps 746 mmHg 53%
    02:00 +35°C° 0 mm 2 mps 746 mmHg 56%
    03:00 +34°C° 0 mm 2 mps 746 mmHg 59%
    04:00 +34°C° 0 mm 2 mps 746 mmHg 61%
    05:00 +32°C° 0 mm 1 mps 746 mmHg 63%
    06:00 +32°C° 0 mm 1 mps 747 mmHg 65%
    07:00 +33°C° 0 mm 1 mps 747 mmHg 60%
    08:00 +34°C° 0 mm 1 mps 748 mmHg 55%
    09:00 +36°C° 0 mm 2 mps 748 mmHg 50%
    10:00 +38°C° 0 mm 2 mps 748 mmHg 45%
    11:00 +39°C° 0 mm 2 mps 748 mmHg 39%
    12:00 +42°C° 0 mm 3 mps 747 mmHg 33%
    13:00 +42°C° 0 mm 4 mps 747 mmHg 35%
    14:00 +42°C° 0 mm 5 mps 746 mmHg 37%
    15:00 +41°C° 0 mm 6 mps 746 mmHg 39%
    16:00 +41°C° 0.1 mm 5 mps 746 mmHg 39%
    17:00 +40°C° 0.1 mm 5 mps 746 mmHg 40%
    18:00 +40°C° 0.1 mm 5 mps 746 mmHg 40%
    19:00 +39°C° 0 mm 5 mps 747 mmHg 41%
    20:00 +39°C° 0 mm 5 mps 747 mmHg 41%
    21:00 +37°C° 0 mm 5 mps 747 mmHg 41%
    22:00 +37°C° 0 mm 5 mps 747 mmHg 43%
    23:00 +37°C° 0 mm 4 mps 747 mmHg 45%

    25 August, Sunday

    Time Temperature Precipitation Wind Pressure Humidity
    00:00 +36°C° 0 mm 4 mps 746 mmHg 46%
    01:00 +36°C° 0 mm 4 mps 746 mmHg 47%
    02:00 +36°C° 0 mm 3 mps 746 mmHg 48%
    03:00 +35°C° 0 mm 2 mps 745 mmHg 49%
    04:00 +35°C° 0 mm 2 mps 746 mmHg 52%
    05:00 +35°C° 0 mm 2 mps 746 mmHg 54%
    06:00 +34°C° 0 mm 3 mps 746 mmHg 57%
    07:00 +35°C° 0 mm 3 mps 746 mmHg 55%
    08:00 +36°C° 0 mm 3 mps 747 mmHg 53%
    09:00 +37°C° 0 mm 3 mps 747 mmHg 51%
    10:00 +38°C° 0 mm 3 mps 747 mmHg 49%
    11:00 +40°C° 0 mm 4 mps 747 mmHg 46%
    12:00 +41°C° 0 mm 4 mps 747 mmHg 43%
    13:00 +41°C° 0 mm 5 mps 746 mmHg 41%
    14:00 +41°C° 0 mm 5 mps 746 mmHg 40%
    15:00 +42°C° 0 mm 6 mps 745 mmHg 38%
    16:00 +41°C° 0.2 mm 7 mps 745 mmHg 38%
    17:00 +41°C° 0.2 mm 7 mps 745 mmHg 37%
    18:00 +40°C° 0.2 mm 8 mps 745 mmHg 37%
    19:00 +39°C° 0 mm 7 mps 746 mmHg 40%
    20:00 +39°C° 0 mm 7 mps 746 mmHg 43%
    21:00 +38°C° 0 mm 6 mps 747 mmHg 45%
    22:00 +36°C° 0 mm 6 mps 746 mmHg 50%
    23:00 +35°C° 0 mm 5 mps 746 mmHg 56%

    26 August, Monday

    Time Temperature Precipitation Wind Pressure Humidity
    00:00 +34°C° 0 mm 5 mps 746 mmHg 61%
    01:00 +35°C° 0 mm 4 mps 745 mmHg 61%
    02:00 +35°C° 0 mm 4 mps 745 mmHg 61%
    03:00 +35°C° 0 mm 3 mps 745 mmHg 61%
    04:00 +34°C° 0 mm 3 mps 745 mmHg 62%
    05:00 +34°C° 0 mm 3 mps 746 mmHg 63%
    06:00 +34°C° 0 mm 3 mps 746 mmHg 64%
    07:00 +35°C° 0 mm 3 mps 746 mmHg 61%
    08:00 +36°C° 0 mm 3 mps 747 mmHg 58%
    09:00 +36°C° 0 mm 3 mps 747 mmHg 55%
    10:00 +38°C° 0 mm 3 mps 747 mmHg 49%
    11:00 +40°C° 0 mm 4 mps 747 mmHg 43%
    12:00 +41°C° 0 mm 4 mps 746 mmHg 37%
    13:00 +42°C° 0 mm 6 mps 746 mmHg 36%
    14:00 +43°C° 0 mm 7 mps 745 mmHg 34%
    15:00 +44°C° 0 mm 9 mps 745 mmHg 32%
    16:00 +43°C° 0 mm 9 mps 745 mmHg 34%
    17:00 +41°C° 0 mm 8 mps 745 mmHg 35%
    18:00 +40°C° 0 mm 8 mps 745 mmHg 36%
    19:00 +39°C° 0 mm 7 mps 745 mmHg 38%
    20:00 +39°C° 0 mm 7 mps 746 mmHg 40%
    21:00 +38°C° 0 mm 6 mps 746 mmHg 42%
    22:00 +37°C° 0 mm 5 mps 746 mmHg 46%
    23:00 +36°C° 0 mm 5 mps 746 mmHg 49%
    Show more